I1SXT-5 Weather Reports


time (UTC)temp
C
wind
direction
speed
KPH
gust
KPH
rain 1hr
cm
rain 24hr
cm
rain mn
cm
humidity
%
barometer
mb
20260506050533 -17 0.0 0.0 0.00 0.00 0.00 76 1008.3
20260506045030 -17 0.0 0.0 0.00 0.00 0.00 75 1008.4
20260506044528 -17 0.0 0.0 0.00 0.00 0.00 75 1008.4
20260506044027 -17 0.0 0.0 0.00 0.00 0.00 75 1008.5
20260506043526 -17 0.0 0.0 0.00 0.00 0.00 76 1008.4
20260506043025 -17 0.0 0.0 0.00 0.00 0.00 77 1008.2
20260506042524 -17 0.0 0.0 0.00 0.00 0.00 74 1009.0
20260506042022 -17 0.0 0.0 0.00 0.00 0.00 74 1008.7
20260506041521 -17 0.0 0.0 0.00 0.00 0.00 74 1008.4
20260506041020 -17 0.0 0.0 0.00 0.00 0.00 75 1008.5
20260506040519 -17 0.0 0.0 0.00 0.00 0.00 75 1008.7
20260506040017 -17 0.0 0.0 0.00 0.00 0.00 75 1008.7
20260506035516 -17 0.0 0.0 0.00 0.00 0.00 75 1008.7
20260506035015 -17 0.0 0.0 0.00 0.00 0.00 75 1009.0
20260506034514 -17 0.0 0.0 0.00 0.00 0.00 76 1009.1
20260506033511 -17 0.0 0.0 0.00 0.00 0.00 75 1009.0
20260506033010 -17 0.0 0.0 0.00 0.00 0.00 75 1008.9
20260506032509 -17 0.0 0.0 0.00 0.00 0.00 75 1009.1
20260506032007 -17 0.0 0.0 0.00 0.00 0.00 76 1009.1
20260506031506 -17 0.0 0.0 0.00 0.00 0.00 76 1009.1
20260506030504 -17 0.0 0.0 0.00 0.00 0.00 80 1009.0
20260506025502 -17 0.0 0.0 0.00 0.00 0.00 78 1008.8
20260506025000 -17 0.0 0.0 0.00 0.00 0.00 76 1009.3
20260506024459 -17 0.0 0.0 0.00 0.00 0.00 77 1009.0
20260506023958 -17 0.0 0.0 0.00 0.00 0.00 75 1008.4
20260506022955 -17 0.0 0.0 0.00 0.00 0.00 74 1008.2
20260506022454 -17 0.0 0.0 0.00 0.00 0.00 75 1008.2
20260506021953 -17 0.0 0.0 0.00 0.00 0.00 75 1008.5
20260506021452 -17 0.0 0.0 0.00 0.00 0.00 76 1008.7
20260506020950 -17 0.0 0.0 0.00 0.00 0.00 75 1008.8
20260506020449 -17 0.0 0.0 0.00 0.00 0.00 74 1009.1
20260506015948 -17 0.0 0.0 0.00 0.00 0.00 72 1009.1
20260506015446 -17 0.0 0.0 0.00 0.00 0.00 70 1009.1
20260506014945 -17 0.0 0.0 0.00 0.00 0.00 69 1009.3
20260506014444 -17 0.0 0.0 0.00 0.00 0.00 68 1009.5
20260506013943 -17 0.0 0.0 0.00 0.00 0.00 68 1009.2
20260506013442 -17 0.0 0.0 0.00 0.00 0.00 68 1009.3
20260506012940 -17 0.0 0.0 0.00 0.00 0.00 68 1009.5
20260506012439 -17 0.0 0.0 0.00 0.00 0.00 69 1009.8
20260506011938 -17 0.0 0.0 0.00 0.00 0.00 70 1009.6
20260506011437 -17 0.0 0.0 0.00 0.00 0.00 69 1009.6
20260506010935 -17 0.0 0.0 0.00 0.00 0.00 68 1009.8
20260506010434 -17 0.0 0.0 0.00 0.00 0.00 68 1009.9
20260506005432 -17 0.0 0.0 0.00 0.00 0.00 69 1009.9
20260506004931 -17 0.0 0.0 0.00 0.00 0.00 69 1009.9
20260506004429 -17 0.0 0.0 0.00 0.00 0.00 69 1010.0
20260506003928 -17 0.0 0.0 0.00 0.00 0.00 69 1010.2
20260506003427 -17 0.0 0.0 0.00 0.00 0.00 70 1010.3
20260506002926 -17 0.0 0.0 0.00 0.00 0.00 71 1010.3
20260506002425 -17 0.0 0.0 0.00 0.00 0.00 71 1010.2
20260506001923 -17 0.0 0.0 0.00 0.00 0.00 71 1010.2
20260506001422 -17 0.0 0.0 0.00 0.00 0.00 69 1010.5
20260506000921 -17 0.0 0.0 0.00 0.00 0.00 67 1010.4
20260506000419 -17 0.0 0.0 0.00 0.00 0.00 68 1010.4
20260505235918 -17 0.0 0.0 0.00 0.00 0.00 67 1010.4
20260505235417 -17 0.0 0.0 0.00 0.00 0.00 63 1010.7
20260505234916 -17 0.0 0.0 0.00 0.00 0.00 63 1010.3
20260505234415 -17 0.0 0.0 0.00 0.00 0.00 62 1010.5
20260505233412 -17 0.0 0.0 0.00 0.00 0.00 61 1010.5
20260505232911 -17 0.0 0.0 0.00 0.00 0.00 61 1010.6
20260505232410 -17 0.0 0.0 0.00 0.00 0.00 61 1010.8
20260505231407 -17 0.0 0.0 0.00 0.00 0.00 62 1010.9
20260505230405 -17 0.0 0.0 0.00 0.00 0.00 63 1011.2
20260505225904 -17 0.0 0.0 0.00 0.00 0.00 62 1011.2
20260505225402 -17 0.0 0.0 0.00 0.00 0.00 63 1011.2
20260505224901 -17 0.0 0.0 0.00 0.00 0.00 62 1011.3
20260505224400 -17 0.0 0.0 0.00 0.00 0.00 62 1011.5
20260505223858 -17 0.0 0.0 0.00 0.00 0.00 62 1011.6
20260505222355 -17 0.0 0.0 0.00 0.00 0.00 63 1011.8
20260505221854 -17 0.0 0.0 0.00 0.00 0.00 65 1011.8
20260505221352 -17 0.0 0.0 0.00 0.00 0.00 65 1011.8
20260505220350 -17 0.0 0.0 0.00 0.00 0.00 62 1011.7
20260505215849 -17 0.0 0.0 0.00 0.00 0.00 62 1011.6
20260505215347 -17 0.0 0.0 0.00 0.00 0.00 63 1011.6
20260505214846 -17 0.0 0.0 0.00 0.00 0.00 63 1011.8
20260505214345 -17 0.0 0.0 0.00 0.00 0.00 63 1011.9
20260505213844 -17 0.0 0.0 0.00 0.00 0.00 64 1011.8
20260505213343 -17 0.0 0.0 0.00 0.00 0.00 64 1011.9
20260505212841 -17 0.0 0.0 0.00 0.00 0.00 63 1012.0
20260505212340 -17 0.0 0.0 0.00 0.00 0.00 64 1011.9
20260505211839 -17 0.0 0.0 0.00 0.00 0.00 64 1011.9
20260505210836 -17 0.0 0.0 0.00 0.00 0.00 66 1011.9
20260505205834 -17 0.0 0.0 0.00 0.00 0.00 65 1012.0
20260505205333 -17 0.0 0.0 0.00 0.00 0.00 64 1012.1
20260505204330 -17 0.0 0.0 0.00 0.00 0.00 65 1012.2
20260505203829 -17 0.0 0.0 0.00 0.00 0.00 65 1012.3
20260505203328 -17 0.0 0.0 0.00 0.00 0.00 65 1012.4
20260505202826 -17 0.0 0.0 0.00 0.00 0.00 64 1012.4
20260505202325 -17 0.0 0.0 0.00 0.00 0.00 64 1012.3
20260505201824 -17 0.0 0.0 0.00 0.00 0.00 64 1012.4
20260505201323 -17 0.0 0.0 0.00 0.00 0.00 63 1012.4
20260505200822 -17 0.0 0.0 0.00 0.00 0.00 63 1012.4
20260505200320 -17 0.0 0.0 0.00 0.00 0.00 63 1012.4
20260505195318 -17 0.0 0.0 0.00 0.00 0.00 63 1012.3
20260505194817 -17 0.0 0.0 0.00 0.00 0.00 63 1012.2
20260505194315 -17 0.0 0.0 0.00 0.00 0.00 63 1012.1
20260505193814 -17 0.0 0.0 0.00 0.00 0.00 62 1012.1
20260505193313 -17 0.0 0.0 0.00 0.00 0.00 61 1012.1
20260505192812 -17 0.0 0.0 0.00 0.00 0.00 60 1012.1
20260505191809 -17 0.0 0.0 0.00 0.00 0.00 60 1012.0
20260505191308 -17 0.0 0.0 0.00 0.00 0.00 60 1011.9
20260505190807 -17 0.0 0.0 0.00 0.00 0.00 60 1011.9
20260505185804 -17 0.0 0.0 0.00 0.00 0.00 59 1011.9
20260505185305 -17 0.0 0.0 0.00 0.00 0.00 57 1011.8
20260505184802 -17 0.0 0.0 0.00 0.00 0.00 57 1011.8
20260505184301 -17 0.0 0.0 0.00 0.00 0.00 58 1011.8
20260505183759 -17 0.0 0.0 0.00 0.00 0.00 58 1011.9
20260505183258 -17 0.0 0.0 0.00 0.00 0.00 58 1011.9
20260505182757 -17 0.0 0.0 0.00 0.00 0.00 57 1011.8
20260505182256 -17 0.0 0.0 0.00 0.00 0.00 57 1011.8
20260505181253 -17 0.0 0.0 0.00 0.00 0.00 58 1011.9
20260505175750 -17 0.0 0.0 0.00 0.00 0.00 60 1011.8
20260505175248 -17 0.0 0.0 0.00 0.00 0.00 59 1011.7
20260505174747 -17 0.0 0.0 0.00 0.00 0.00 58 1011.7
20260505174246 -17 0.0 0.0 0.00 0.00 0.00 59 1011.7
20260505173744 -17 0.0 0.0 0.00 0.00 0.00 58 1011.8
20260505173243 -17 0.0 0.0 0.00 0.00 0.00 58 1011.8
20260505172742 -17 0.0 0.0 0.00 0.00 0.00 59 1011.8
20260505172241 -17 0.0 0.0 0.00 0.00 0.00 59 1011.7
20260505171239 -17 0.0 0.0 0.00 0.00 0.00 53 1011.5
20260505170737 -17 0.0 0.0 0.00 0.00 0.00 52 1011.5
20260505170236 -17 0.0 0.0 0.00 0.00 0.00 53 1011.5
20260505165735 -17 0.0 0.0 0.00 0.00 0.00 52 1011.6
20260505164732 -17 0.0 0.0 0.00 0.00 0.00 50 1011.5
20260505163730 -17 0.0 0.0 0.00 0.00 0.00 51 1011.6
20260505162727 -17 0.0 0.0 0.00 0.00 0.00 53 1011.6
20260505161725 -17 0.0 0.0 0.00 0.00 0.00 53 1011.7
20260505161224 -17 0.0 0.0 0.00 0.00 0.00 53 1011.7
20260505160722 -17 0.0 0.0 0.00 0.00 0.00 55 1011.8
20260505153214 -17 0.0 0.0 0.00 0.00 0.00 55 1012.1
20260505152713 -17 0.0 0.0 0.00 0.00 0.00 55 1012.0
20260505152211 -17 0.0 0.0 0.00 0.00 0.00 55 1012.0
20260505151710 -17 0.0 0.0 0.00 0.00 0.00 54 1012.0
20260505151209 -17 0.0 0.0 0.00 0.00 0.00 51 1012.0
20260505150708 -17 0.0 0.0 0.00 0.00 0.00 55 1012.0
20260505150206 -17 0.0 0.0 0.00 0.00 0.00 56 1012.0
20260505140653 -17 0.0 0.0 0.00 0.00 0.00 49 1011.9
20260505140152 -17 0.0 0.0 0.00 0.00 0.00 49 1011.9
20260505130137 -17 0.0 0.0 0.00 0.00 0.00 52 1012.1
20260505124634 -17 0.0 0.0 0.00 0.00 0.00 53 1012.0
20260505124132 -17 0.0 0.0 0.00 0.00 0.00 54 1012.0
20260505123631 -17 0.0 0.0 0.00 0.00 0.00 55 1012.1
20260505123130 -17 0.0 0.0 0.00 0.00 0.00 54 1012.1
20260505122629 -17 0.0 0.0 0.00 0.00 0.00 55 1012.1
20260505122127 -17 0.0 0.0 0.00 0.00 0.00 56 1012.1
20260505121626 -17 0.0 0.0 0.00 0.00 0.00 57 1012.1
20260505121125 -17 0.0 0.0 0.00 0.00 0.00 57 1012.2
20260505120624 -17 0.0 0.0 0.00 0.00 0.00 57 1012.1
20260505120122 -17 0.0 0.0 0.00 0.00 0.00 56 1012.0
20260505115621 -17 0.0 0.0 0.00 0.00 0.00 55 1012.0
20260505115120 -17 0.0 0.0 0.00 0.00 0.00 56 1012.0
20260505113616 -17 0.0 0.0 0.00 0.00 0.00 55 1012.0
20260505113115 -17 0.0 0.0 0.00 0.00 0.00 56 1012.0
20260505112614 -17 0.0 0.0 0.00 0.00 0.00 56 1012.0
20260505112112 -17 0.0 0.0 0.00 0.00 0.00 56 1012.0
20260505111611 -17 0.0 0.0 0.00 0.00 0.00 55 1012.0
20260505111110 -17 0.0 0.0 0.00 0.00 0.00 54 1011.9
20260505110609 -17 0.0 0.0 0.00 0.00 0.00 55 1011.8
20260505110107 -17 0.0 0.0 0.00 0.00 0.00 55 1011.8
20260505101556 -17 0.0 0.0 0.00 0.00 0.00 57 1011.7
20260505101055 -17 0.0 0.0 0.00 0.00 0.00 56 1011.6
20260505100554 -17 0.0 0.0 0.00 0.00 0.00 57 1011.7
20260505100053 -17 0.0 0.0 0.00 0.00 0.00 58 1011.7
20260505095552 -17 0.0 0.0 0.00 0.00 0.00 58 1011.7
20260505095051 -17 0.0 0.0 0.00 0.00 0.00 59 1011.6
20260505094549 -17 0.0 0.0 0.00 0.00 0.00 57 1011.6
20260505094048 -17 0.0 0.0 0.00 0.00 0.00 58 1011.6
20260505093547 -17 0.0 0.0 0.00 0.00 0.00 59 1011.7
20260505093045 -17 0.0 0.0 0.00 0.00 0.00 60 1011.6
20260505092544 -17 0.0 0.0 0.00 0.00 0.00 62 1011.7
20260505092043 -17 0.0 0.0 0.00 0.00 0.00 62 1011.6
20260505091542 -17 0.0 0.0 0.00 0.00 0.00 62 1011.7
20260505091040 -17 0.0 0.0 0.00 0.00 0.00 64 1011.7
20260505090540 -17 0.0 0.0 0.00 0.00 0.00 65 1011.8
20260505090038 -17 0.0 0.0 0.00 0.00 0.00 64 1011.8
20260505085537 -17 0.0 0.0 0.00 0.00 0.00 65 1011.8
20260505085036 -17 0.0 0.0 0.00 0.00 0.00 66 1011.7
20260505084535 -17 0.0 0.0 0.00 0.00 0.00 66 1011.7
20260505084033 -17 0.0 0.0 0.00 0.00 0.00 67 1011.7
20260505083532 -17 0.0 0.0 0.00 0.00 0.00 68 1011.7
20260505083031 -17 0.0 0.0 0.00 0.00 0.00 68 1011.7
20260505082028 -17 0.0 0.0 0.00 0.00 0.00 71 1011.6
20260505081527 -17 0.0 0.0 0.00 0.00 0.00 71 1011.5
20260505081026 -17 0.0 0.0 0.00 0.00 0.00 70 1011.5
20260505080524 -17 0.0 0.0 0.00 0.00 0.00 70 1011.6
20260505075522 -17 0.0 0.0 0.00 0.00 0.00 71 1011.6
20260505075021 -17 0.0 0.0 0.00 0.00 0.00 70 1011.8
20260505074520 -17 0.0 0.0 0.00 0.00 0.00 70 1011.8
20260505074018 -17 0.0 0.0 0.00 0.00 0.00 70 1011.9
20260505073517 -17 0.0 0.0 0.00 0.00 0.00 72 1011.8
20260505073016 -17 0.0 0.0 0.00 0.00 0.00 73 1011.9
20260505072515 -17 0.0 0.0 0.00 0.00 0.00 74 1012.0
20260505072014 -17 0.0 0.0 0.00 0.00 0.00 74 1012.0
20260505071011 -17 0.0 0.0 0.00 0.00 0.00 75 1011.8
20260505070510 -17 0.0 0.0 0.00 0.00 0.00 73 1011.8
20260505070009 -17 0.0 0.0 0.00 0.00 0.00 72 1011.9
20260505065507 -17 0.0 0.0 0.00 0.00 0.00 71 1011.9
20260505065006 -17 0.0 0.0 0.00 0.00 0.00 71 1012.0
20260505064506 -17 0.0 0.0 0.00 0.00 0.00 71 1011.9
20260505064004 -17 0.0 0.0 0.00 0.00 0.00 72 1011.7
20260505063503 -17 0.0 0.0 0.00 0.00 0.00 72 1011.8
20260505062500 -17 0.0 0.0 0.00 0.00 0.00 72 1011.7
20260505061959 -17 0.0 0.0 0.00 0.00 0.00 73 1011.7
20260505061458 -17 0.0 0.0 0.00 0.00 0.00 74 1011.7
20260505060956 -17 0.0 0.0 0.00 0.00 0.00 72 1011.2
20260505060455 -17 0.0 0.0 0.00 0.00 0.00 71 1010.9